Location: ??????
(56.0120°N, 39.1740°E)
Time: 06:43:52
(UTC+00:00)

ERS-1 Rocket - Pass Details

Date: 14 April 2026
Orbit: 747 x 750 km, 98.2° (Epoch: 10 May)

Event Time Altitude Azimuth Distance (km) Brightness Sun altitude
Exits shadow 17:51:30 - 178° (S) 3,162 5.8 -11.1°
Reaches altitude 10° 17:53:47 10° 183° (S) 2,267 5.1 -11.4°
Maximum altitude 17:58:39 52° 260° (W) 932 3.7 -11.9°
Drops below altitude 10° 18:03:34 10° 337° (NNW) 2,285 6.5 -12.5°
Sets 18:05:56 0° 342° (NNW) 3,214 7.3 -12.7°
